Showing default

FLOCK 4G 25, 62646

Orbit data source: Space-Track

FLOCK 4G 25, 62646 is a payload satellite owned by Planet (US) in SSO that was launched on Tue, 14 Jan 2025 UTC via an FALCON 9 launch vehicle from the Air Force Western Test Range (AFWTR). Payload-class satellites include a variety of spacecraft equipped with specific instruments for various scientific and technological missions. These include communications satellites like Starlink; space stations such as the ISS; scientific satellites like the Hubble; Earth observation satellites from companies like Planet Labs, Umbra, and HawkEye 360; GPS; miniature CubeSats for education and research; and military/defense satellites.

Loading next visibility...
Identifier
62646, 2025-009AP
Orbit
SSO
Country
Flag of USUS
Related business
Manufacturer
Planet
Mission
Operational Commercial Imaging
Bus & Motor
CUBESAT 3U, Unknown motor
Mass
5.7 kg wet, 5.7 kg dry
Launch date (UTC)
2025-01-14 (10 months ago)
Launch vehicle
FALCON 9
Launch site
Air Force Western Test Range (AFWTR)
Object type
Payload
Rocket body
Debris
Shape & HBR
Box + 2 Pan, 1.0 m
Radar Cross Section
0.072 m², Medium (>0.1 m² and < 1m²)

Expand to show TLE details & history
Last TLE update: 20 hours ago

TLE from 20 hours ago
0 FLOCK 4G 25
1 62646U 25009AP  25309.47071953  .00011711  00000-0  48556-3 0  9997
2 62646  97.4228  28.1753 0002441  42.0480 318.0945 15.24035832 44789
Epoch: 2025-11-05T11:17Z
TLE epoch observation values (Epoch: 2025-11-05T11:17:50.167Z)
Latitude
0.00006°
Longitude
173.77334°
Altitude
495.529 km
Speed
7.618 km/s
True Right ascension
01h 52m 42s
True Declination
0° 00' 00"
Sunlit
Object was in full shadow at epoch
Visualization orbit readout
Latitude
Unknown
Longitude
Unknown
Altitude
Unknown
Speed
Unknown
Apparent Right ascension
Unknown
Apparent Declination
Unknown
Sunlit
N/A
Visualization observer readout
Local Sidereal Time
03:15:05
Azimuth
Unknown
Elevation
Unknown
Doppler factor
Unknown
Orbital elements
Apogee altitude
492.32 km
Perigee altitude
488.967 km
Semi-major axis
6,868.78 km
Eccentricity
0.00024
Inclination
97.4228°
RAAN
28.1753°
Arg. of periapsis
42.048°
True anomaly
318.07581°
Mean anomaly
318.0945°
Eccentric anomaly
318.08516°
Mean motion
3.81262 °/min
Orbital period
94.42 mins
BSTAR
0.00048556
Loading maneuver chart data...
Computing Atmospheric mass density...
Loading historical data...
Loading historical data...
Loading historical data...
Loading historical data...
Loading historical data...
Loading historical data...
Loading historical data...

Documentation

Showing up to 5 results
|